{"data":{"norad_id":54824,"intl_designator":"2022-177E","name":"STARLINK-4643","alt_names":[],"object_type":"PAYLOAD","status":"ACTIVE","operator":null,"country":"US","launch_date":"2022-12-28","launch_site_code":"AFETR","launch_vehicle":null,"mission":null,"orbit_class":"UNKNOWN","rcs_meters":null,"size_class":null,"mass_kg":null,"dimensions":null,"purposes":["comms"],"wikipedia_slug":null,"has_3d_model":false,"image_url":null,"decayed_at":null,"tle_current":{"epoch":"2026-05-25T02:51:28.213056Z","epoch_age_seconds":78910,"freshness":"FRESH","line1":"1 54824U 22177E   26145.11907654  .00000434  00000+0  25291-4 0  9996","line2":"2 54824  43.0048  64.3074 0001049 238.5264 121.5485 15.27581336188613","mean_motion":15.27581336,"eccentricity":0.0001049,"inclination_deg":43.0048,"raan_deg":64.3074,"arg_perigee_deg":238.5264,"mean_anomaly_deg":121.5485,"bstar":2.5291e-5,"rev_number":18861,"period_min":94.26666626935,"perigee_km":482.32535757612,"apogee_km":483.76483357977,"semimajor_km":6861.1820955779,"source":"CELESTRAK","updated_at":"2026-05-25T13:38:17.720937Z"}}}